Hourly Data Report for October 31, 2015

All times are specified in Local Standard Time (LST). Add 1 hour to adjust for Daylight Saving Time where and when it is observed.

RANKIN INLET A
NUNAVUT

62°48'38.000" N
92°06'53.000" W
32.30 m
2303405
71083
YRT

Download Data

Hourly Data (October 2015)
Hourly Data Report for October 31, 2015
Temp Definition
°C
Dew Point Temp Definition
°C
Rel Hum Definition
%
Wind Dir Definition
10's deg

Wind Spd Definition
km/h
Visibility Definition
km
Stn Press Definition
kPa
Hmdx Definition


Wind Chill Definition


Weather Definition


TIME
00:00 Legend Double Dagger -4.5 -6.3 87 14 22 16.1 100.61   -11 Snow
01:00 Legend Double Dagger -3.9 -8.4 71 14 33 16.1 100.61   -12 Snow
02:00 Legend Double Dagger -4.2 -8.7 71 16 31 16.1 100.64   -12 Snow
03:00 Legend Double Dagger -4.2 -8.9 70 13 27 16.1 100.66   -12 Cloudy
04:00 Legend Double Dagger -4.1 -8.6 71 11 19 16.1 100.67   -10 Snow
05:00 Legend Double Dagger -3.9 -8.1 73 12 23 16.1 100.69   -11 Snow
06:00 Legend Double Dagger -3.9 -7.7 75 11 26 16.1 100.69   -11 Snow
07:00 Legend Double Dagger -4.2 -8.2 74 12 32 16.1 100.71   -12 Snow
08:00 Legend Double Dagger -4.0 -7.6 76 13 28 16.1 100.74   -11 Snow
09:00 Legend Double Dagger -4.0 -7.8 75 15 35 16.1 100.76   -12 Snow,Blowing Snow
10:00 Legend Double Dagger -3.9 -8.8 69 14 32 16.1 100.78   -12 Snow,Blowing Snow
11:00 Legend Double Dagger -3.9 -8.4 71 13 35 16.1 100.79   -12 Snow,Blowing Snow
12:00 Legend Double Dagger -3.9 -8.2 72 12 30 16.1 100.80   -12 Snow,Blowing Snow
13:00 Legend Double Dagger -3.8 -8.0 73 12 29 16.1 100.82   -11 Snow,Blowing Snow
14:00 Legend Double Dagger -3.8 -7.4 76 12 28 16.1 100.86   -11 Snow,Blowing Snow
15:00 Legend Double Dagger -3.7 -7.3 76 13 25 16.1 100.88   -11 Snow,Blowing Snow
16:00 Legend Double Dagger -4.0 -6.8 81 13 29 16.1 100.89   -12 Snow,Blowing Snow
17:00 Legend Double Dagger -4.0 -6.5 83 11 31 3.2 100.90   -12 Snow,Blowing Snow
18:00 Legend Double Dagger -4.2 -6.7 83 12 33 4.8 100.93   -12 Snow,Blowing Snow
19:00 Legend Double Dagger -4.1 -7.1 80 12 37 16.1 100.93   -13 Snow,Blowing Snow
20:00 Legend Double Dagger -4.1 -7.2 79 12 32 4.8 100.93   -12 Snow,Blowing Snow
21:00 Legend Double Dagger -4.4 -6.7 84 12 35 6.4 100.92   -13 Snow,Blowing Snow
22:00 Legend Double Dagger -4.6 -6.9 84 11 31 6.4 100.96   -13 Snow,Blowing Snow
23:00 Legend Double Dagger -4.3 -6.6 84 12 30 6.4 100.97   -12 Snow,Blowing Snow

Notes on Data Quality.

Legend

  • E = Estimated
  • M = Missing
  • NA = Not Available
  • ‡ = Partner data that is not subject to review by the National Climate Archives
Date modified: